Satellite: NO-44
Catalog number: 26931
Epoch time:      10230.74859767
Element set:     536
Inclination:      067.0524 deg
RA of node:       042.7879 deg
Eccentricity:    0.0005069
Arg of perigee:   266.1758 deg
Mean anomaly:     093.8735 deg
Mean motion:   14.29606802 rev/day
Decay rate:      -1.39e-06 rev/day^2
Epoch rev:           46369
Checksum:              343

Satellite: SO-50
Catalog number: 27607
Epoch time:      10229.30738880
Element set:    0249
Inclination:      064.5579 deg
RA of node:       170.8680 deg
Eccentricity:    0.0038130
Arg of perigee:   049.2539 deg
Mean anomaly:     311.1880 deg
Mean motion:   14.71565172 rev/day
Decay rate:       1.02e-06 rev/day^2
Epoch rev:           41137
Checksum:              296

Satellite: CO-55
Catalog number: 27844
Epoch time:      10230.49311076
Element set:     915
Inclination:      098.7104 deg
RA of node:       238.5758 deg
Eccentricity:    0.0010311
Arg of perigee:   357.2890 deg
Mean anomaly:     002.8239 deg
Mean motion:   14.20723720 rev/day
Decay rate:        4.2e-07 rev/day^2
Epoch rev:           36993
Checksum:              293

Satellite: CO-57
Catalog number: 27848
Epoch time:      10230.53181900
Element set:     863
Inclination:      098.7160 deg
RA of node:       237.7207 deg
Eccentricity:    0.0010214
Arg of perigee:   001.2292 deg
Mean anomaly:     358.8908 deg
Mean motion:   14.20515346 rev/day
Decay rate:        4.3e-07 rev/day^2
Epoch rev:           36989
Checksum:              299

Satellite: AO-51
Catalog number: 28375
Epoch time:      10229.47447537
Element set:    0752
Inclination:      098.0662 deg
RA of node:       219.4935 deg
Eccentricity:    0.0083225
Arg of perigee:   272.0608 deg
Mean anomaly:     087.1053 deg
Mean motion:   14.40694716 rev/day
Decay rate:        2.2e-07 rev/day^2
Epoch rev:           32233
Checksum:              303

Satellite: GENESAT1
Catalog number: 29655
Epoch time:      10216.61700559
Element set:     226
Inclination:      040.0059 deg
RA of node:       067.3006 deg
Eccentricity:    0.0005079
Arg of perigee:   297.8744 deg
Mean anomaly:     064.7087 deg
Mean motion:   16.44862838 rev/day
Decay rate:  1.0637092e-01 rev/day^2
Epoch rev:           20777
Checksum:              320

Satellite: CP3
Catalog number: 31129
Epoch time:      10230.49984894
Element set:     653
Inclination:      097.9353 deg
RA of node:       266.7236 deg
Eccentricity:    0.0103609
Arg of perigee:   041.1302 deg
Mean anomaly:     319.7640 deg
Mean motion:   14.52292469 rev/day
Decay rate:       1.61e-06 rev/day^2
Epoch rev:           17690
Checksum:              306

Satellite: CO-65
Catalog number: 32785
Epoch time:      10230.22665662
Element set:     760
Inclination:      097.8907 deg
RA of node:       294.2807 deg
Eccentricity:    0.0016142
Arg of perigee:   083.0136 deg
Mean anomaly:     277.2888 deg
Mean motion:   14.81700658 rev/day
Decay rate:       5.92e-06 rev/day^2
Epoch rev:           12467
Checksum:              325

Satellite: KKS-1
Catalog number: 33493
Epoch time:      10230.68085282
Element set:     768
Inclination:      098.0917 deg
RA of node:       350.7284 deg
Eccentricity:    0.0018844
Arg of perigee:   301.5994 deg
Mean anomaly:     058.3382 deg
Mean motion:   14.81067431 rev/day
Decay rate:       5.28e-06 rev/day^2
Epoch rev:            8473
Checksum:              319

Satellite: SOHLA-1
Catalog number: 33496
Epoch time:      10229.85142797
Element set:    0181
Inclination:      098.0614 deg
RA of node:       338.1405 deg
Eccentricity:    0.0006918
Arg of perigee:   016.7129 deg
Mean anomaly:     343.4281 deg
Mean motion:   14.69508988 rev/day
Decay rate:       -1.7e-07 rev/day^2
Epoch rev:           08393
Checksum:              321

Satellite: TISAT-1
Catalog number: 36799
Epoch time:      10229.77494666
Element set:    0055
Inclination:      098.1427 deg
RA of node:       289.4499 deg
Eccentricity:    0.0015969
Arg of perigee:   172.1626 deg
Mean anomaly:     187.9811 deg
Mean motion:   14.80143140 rev/day
Decay rate:       1.19e-06 rev/day^2
Epoch rev:           00542
Checksum:              332

Satellite: STUDSAT
Catalog number: 36801
Epoch time:      10229.92441157
Element set:    0099
Inclination:      098.1451 deg
RA of node:       289.5640 deg
Eccentricity:    0.0014052
Arg of perigee:   159.2964 deg
Mean anomaly:     200.8819 deg
Mean motion:   14.79590841 rev/day
Decay rate:       9.57e-06 rev/day^2
Epoch rev:           00544
Checksum:              312

/EX
SB KEPS @ AMSAT  $ORB10230.W
Orbital Elements  10230.WEATHER

HR AMSAT ORBITAL ELEMENTS FOR WEATHER SATELLITES
FROM WA5QGD FORT WORTH,TX August 18, 2010
Send Subscribe/unsubscribe to KEPS at http://www.amsat.org/mailman/listinfo/kep
BID: ORB10230.W
TO ALL RADIO AMATEURS BT

Satellite: NOAA-10
Catalog number: 16969
Epoch time:      10229.69749705
Element set:    0171
Inclination:      098.6537 deg
RA of node:       258.0786 deg
Eccentricity:    0.0013066
Arg of perigee:   034.8866 deg
Mean anomaly:     325.3184 deg
Mean motion:   14.27424040 rev/day
Decay rate:       -2.1e-07 rev/day^2
Epoch rev:           24435
Checksum:              314

